Temperature
16 18 19 18 18 16 13 12 11 12 13 13 12 12 13 14 13 13 13 13 13 13 13 13 13 13 13 12 12 12 12 12 12 12 12 12 12 12 12 12 12 12 13 13
17 18 18 18 18 18 16 16 14 14 13 13 13 13 13 12 12 12 12 12 12 12 13 13 12 12 12 12 12 12 12 12 12 12 12 12 12 12 12 12 12 12 12 12
15 17 17 16 17 18 18 17 16 14 13 12 12 12 12 12 12 13 13 13 12 12 12 12 12 12 12 11 11 11 11 11 12 12 12 12 12 12 12 12 12 12 12 12
14 15 15 15 17 18 18 17 16 15 14 12 13 14 14 13 13 13 13 13 12 12 12 11 11 11 11 11 11 11 11 11 11 11 11 11 11 11 12 12 12 12 12 11
13 14 15 16 18 18 17 16 16 15 14 14 15 13 13 13 13 13 13 12 12 12 11 11 11 11 11 11 11 11 11 11 11 11 11 11 11 11 11 11 11 11 11 11
13 14 14 16 18 19 17 15 15 15 14 14 12 10 12 15 13 13 13 12 12 11 11 11 10 10 10 11 11 11 11 11 10 10 10 10 11 10 10 10 11 11 11 11
14 14 14 17 19 18 15 14 16 17 16 15 12 14 15 15 14 13 12 12 12 11 11 11 10 10 10 10 10 10 10 10 9 9 10 10 10 10 10 10 10 10 10 10
14 14 14 18 18 16 15 18 17 17 17 16 16 16 15 15 14 13 12 12 12 11 11 11 10 10 10 10 10 10 10 9 9 9 9 10 10 10 10 10 10 10 10 10
14 14 16 19 19 20 20 18 18 17 17 17 17 16 15 14 14 13 13 12 12 11 11 11 10 10 10 10 10 9 9 9 9 9 9 10 10 10 10 9 9 9 9 9
14 15 17 19 19 20 19 19 19 18 18 17 17 16 15 14 14 13 13 12 12 11 11 11 10 10 10 10 9 9 9 8 9 9 9 9 9 9 9 9 9 9 9 9
13 13 16 18 19 19 19 19 19 18 18 17 17 16 15 14 14 13 13 12 12 12 11 11 10 10 10 9 9 9 8 8 8 9 9 9 9 9 9 9 9 9 9 8
14 15 14 17 18 19 19 19 19 18 18 17 17 16 15 14 14 13 13 12 12 12 11 11 10 10 9 9 9 9 9 9 9 9 8 8 8 8 9 9 8 8 8 8
17 18 18 18 18 18 19 19 19 18 18 17 17 17 16 15 14 13 13 13 12 12 11 11 10 10 10 9 9 9 9 9 9 9 9 9 9 9 9 9 9 9 8 8
18 18 18 18 18 18 19 19 19 19 18 18 17 17 16 15 14 14 13 13 12 12 11 11 10 10 10 10 10 10 9 9 9 9 9 9 9 9 9 9 9 9 8 8
18 18 18 18 18 18 18 19 18 18 18 18 17 17 16 15 15 14 14 13 12 12 12 11 11 10 10 10 10 10 10 10 10 10 10 10 10 10 9 9 9 9 9 8
18 18 18 18 18 18 18 18 18 18 18 18 17 17 16 16 15 15 14 13 12 12 12 11 11 11 11 10 10 10 10 10 10 10 10 10 10 10 10 10 9 9 9 9
16 17 17 18 18 18 18 18 18 17 18 17 17 17 17 16 15 15 14 14 13 13 12 12 12 11 11 11 11 11 11 11 11 10 10 11 11 10 10 10 10 10 10 9
15 15 15 15 16 16 17 17 17 17 17 17 17 17 17 16 16 15 15 14 13 13 13 12 12 12 11 11 11 11 11 11 11 11 11 11 11 11 10 10 10 10 10 9
14 14 13 13 13 13 14 15 16 16 16 17 17 17 16 16 16 16 15 14 14 13 13 13 13 12 12 12 12 11 11 11 11 11 11 11 11 11 11 10 10 10 10 9
12 12 12 12 12 11 10 11 13 14 15 15 16 16 16 16 16 16 15 15 14 14 14 14 13 13 12 12 12 12 12 11 11 11 11 11 11 11 11 11 11 11 10 10
12 12 12 12 12 12 10 10 10 11 13 14 14 15 15 15 15 15 14 14 15 15 15 14 14 13 13 12 12 12 12 12 12 12 11 11 11 11 11 11 11 11 11 10
12 11 11 11 11 11 11 10 10 11 12 13 13 14 14 14 14 14 14 14 15 15 14 14 14 14 13 13 13 12 12 12 12 12 11 11 11 11 11 11 11 11 11 11
11 11 11 11 11 11 11 11 11 11 12 12 13 13 13 13 13 13 13 14 14 14 14 14 14 14 14 13 13 13 12 12 12 12 12 11 11 11 11 11 11 11 11 11
11 11 11 11 11 11 11 11 12 12 12 12 12 12 12 12 13 13 13 14 14 14 14 14 14 14 14 13 13 12 12 12 12 12 12 12 11 11 11 11 11 11 11 11
10 10 10 10 10 10 10 11 11 11 11 11 11 11 12 12 12 12 13 13 14 14 13 13 13 13 13 12 12 12 12 12 12 12 12 12 12 11 11 11 11 11 11 11
9 9 9 9 9 9 9 9 10 10 11 11 11 11 11 11 11 12 12 13 13 13 13 13 13 13 13 13 13 13 13 13 12 12 12 12 12 12 12 12 11 11 11 10
8 8 8 8 8 8 8 8 9 9 10 10 10 10 10 11 11 11 12 12 13 13 13 13 13 13 13 13 13 13 13 13 13 13 13 12 12 12 12 12 12 11 10 9
Wind_Speed
7 8 7 8 8 8 9 10 10 10 10 13 9 8 8 8 7 6 4 3 3 3 3 4 5 4 4 4 3 3 3 3 3 4 4 2 1 1 3 4 4 4 5 7
3 6 7 11 11 8 11 8 9 8 9 8 4 3 4 5 5 5 5 6 5 4 3 3 3 3 3 3 2 3 4 3 3 4 4 4 4 4 5 5 5 5 6 6
5 6 7 9 9 8 6 6 8 9 10 6 5 6 7 7 7 7 6 6 6 6 4 3 2 1 1 1 1 3 4 4 5 5 6 6 5 5 4 4 4 5 5 6
4 2 6 9 7 7 7 7 8 7 6 8 9 7 8 8 9 8 7 5 5 5 5 3 3 2 1 1 1 2 3 4 4 5 6 5 5 5 4 3 4 4 5 5
5 5 7 8 7 7 7 6 6 7 7 8 6 2 5 9 10 9 7 6 5 6 6 5 5 4 3 1 2 4 4 4 3 5 5 4 3 3 3 4 5 4 4 6
5 5 8 10 6 6 6 4 6 8 9 8 8 4 8 9 10 9 7 6 6 5 4 4 4 4 3 3 5 5 4 3 3 4 4 3 3 1 2 3 5 5 6 7
7 8 9 8 6 7 5 9 9 11 10 9 12 13 9 7 9 9 8 7 7 5 3 4 5 6 5 5 5 5 4 5 5 4 3 3 3 2 3 4 6 6 7 7
5 5 9 8 7 8 11 7 11 12 11 10 12 11 7 10 11 11 9 8 8 5 4 4 6 8 7 6 4 5 5 5 4 3 1 2 3 3 4 6 7 6 7 6
7 9 8 6 9 9 9 9 11 12 11 9 9 10 10 11 12 12 11 9 7 6 6 5 6 8 8 6 6 6 6 5 4 3 2 1 3 4 5 6 6 5 6 5
6 8 8 10 9 7 9 11 13 13 11 10 11 13 12 11 11 10 9 8 7 8 8 7 6 8 8 7 7 7 7 5 4 3 3 4 4 4 6 6 6 5 5 4
9 10 10 9 8 8 7 9 11 12 11 12 16 14 14 12 11 9 8 7 8 9 10 9 9 8 8 8 8 7 7 5 4 3 4 5 5 4 5 4 7 7 5 4
13 12 10 10 10 12 9 10 13 14 12 11 15 16 16 14 12 11 11 10 10 10 9 9 10 10 9 8 8 8 6 5 4 3 3 4 5 5 7 5 6 7 6 5
14 13 12 11 11 13 12 11 14 15 14 11 11 15 18 13 13 13 13 12 12 12 11 11 11 10 10 9 9 9 7 6 4 4 4 4 5 5 4 3 4 5 4 3
14 13 12 12 13 13 12 12 13 16 14 13 13 12 16 14 12 14 15 15 14 13 12 12 12 11 10 10 10 9 8 8 7 6 6 6 6 6 6 6 4 2 4 8
16 15 14 13 12 11 9 7 9 13 13 12 13 14 17 17 17 17 16 15 14 13 13 13 13 13 11 11 11 10 8 6 6 6 6 7 7 7 7 7 6 5 4 6
13 12 11 11 10 8 5 4 7 12 14 14 14 16 18 20 19 17 15 16 15 16 15 15 15 15 14 13 13 10 9 12 10 7 6 6 6 6 7 8 7 6 7 7
10 11 11 9 9 8 6 5 8 11 13 14 17 18 18 17 17 16 16 17 17 17 17 17 17 16 14 15 13 10 9 9 13 8 7 7 6 7 7 8 7 7 8 10
7 7 6 5 5 7 7 8 8 9 12 16 17 16 18 19 20 20 19 17 15 14 16 18 18 16 16 16 14 11 9 8 8 8 7 7 6 7 8 9 9 9 7 7
18 18 16 15 15 14 11 7 2 2 5 7 11 14 17 20 22 21 19 18 18 18 18 19 21 18 16 18 17 11 11 10 9 8 8 10 9 8 9 9 8 8 8 7
13 11 11 12 15 17 19 18 12 7 3 1 2 7 11 14 16 18 20 21 20 19 19 19 19 17 16 17 19 13 13 12 12 10 9 8 9 10 10 10 10 9 8 8
8 7 7 6 6 9 12 18 18 15 10 5 3 5 8 11 13 16 17 19 19 18 18 21 18 16 16 16 19 13 12 11 11 11 11 10 10 11 11 11 10 9 9 9
9 8 7 6 3 2 4 7 12 16 15 11 8 7 6 7 10 14 19 19 18 20 19 16 16 18 20 20 15 13 13 12 11 11 11 11 11 11 11 12 11 10 9 10
9 9 8 8 8 9 10 12 13 14 14 13 11 9 9 9 8 9 13 16 16 20 20 16 18 22 23 18 13 13 12 12 12 12 12 11 12 12 12 13 12 10 10 10
10 10 9 9 9 10 13 14 15 13 13 13 12 11 10 8 8 8 10 15 21 23 19 18 22 23 22 16 14 14 14 14 13 12 11 10 10 10 11 11 10 10 11 12
14 13 12 11 11 10 12 13 12 11 11 10 10 10 9 7 7 6 7 10 17 21 18 20 24 25 21 15 16 16 15 14 14 13 11 9 9 9 9 10 11 12 11 10
11 10 10 10 10 11 11 10 9 8 8 8 9 8 7 6 6 6 7 10 14 20 19 17 20 21 18 17 17 17 16 15 16 15 12 11 10 9 9 10 13 12 10 9
9 7 8 10 10 10 10 9 9 8 7 7 8 8 7 6 5 5 6 8 10 15 16 16 17 17 16 15 15 15 14 14 14 13 12 11 9 9 11 13 11 9 8 7
Wind_Direction
227 253 274 286 281 204 190 194 199 235 243 257 258 252 252 237 220 213 194 158 140 148 156 133 122 119 102 73 59 51 67 104 151 174 175 181 207 152 126 116 98 74 58 40
279 276 295 294 284 234 208 203 214 237 258 246 238 245 234 205 193 198 194 170 147 126 122 129 134 133 102 71 59 63 68 69 91 100 96 89 102 111 106 104 103 81 67 53
247 263 302 279 247 214 202 200 198 229 247 226 223 230 225 218 216 215 215 203 175 158 152 151 167 156 132 349 29 76 91 88 93 95 91 86 86 83 79 84 97 88 78 64
217 287 243 246 253 205 200 215 209 219 227 209 218 222 226 217 211 216 211 194 159 150 163 183 206 226 248 313 26 112 123 117 116 106 99 93 86 77 63 57 71 74 77 70
171 218 263 273 246 201 194 227 211 204 219 222 207 159 261 225 204 200 192 170 162 168 180 193 202 208 213 234 134 123 126 121 124 129 126 123 113 94 72 77 78 78 72 62
172 207 240 250 239 154 123 250 224 197 217 210 147 177 249 223 198 190 172 158 167 177 180 193 204 179 156 141 129 134 138 126 119 130 143 158 171 153 89 97 107 100 78 64
208 226 254 251 181 139 175 239 215 210 215 190 186 210 229 190 175 173 170 179 186 186 195 203 173 140 132 128 139 150 138 126 118 111 151 191 189 168 120 113 113 104 92 75
214 229 258 226 185 191 215 204 194 207 214 204 212 216 193 166 164 166 173 187 190 184 196 177 144 133 137 147 150 136 131 131 123 91 95 177 163 143 120 123 117 109 100 79
206 222 252 250 232 226 185 183 198 203 210 198 184 182 174 171 172 178 183 189 184 177 183 178 155 147 156 173 153 130 123 124 124 97 57 104 134 128 124 127 124 120 115 105
276 272 284 283 268 249 206 199 194 193 195 176 177 180 177 178 183 189 189 186 174 167 174 181 176 170 171 170 152 137 138 141 137 108 78 71 80 109 130 137 133 131 129 122
268 272 283 283 281 284 261 220 197 196 194 186 179 182 182 184 189 189 184 177 167 169 176 179 173 172 172 166 152 149 155 161 159 132 111 93 74 70 106 135 157 153 155 142
256 249 242 254 262 274 271 227 206 197 198 186 179 182 183 185 184 181 178 170 168 169 172 173 169 174 180 174 163 160 168 178 182 165 140 129 114 80 54 88 118 129 133 136
242 242 236 241 250 259 259 240 216 200 191 184 178 175 176 176 179 178 176 171 173 175 176 172 171 179 187 179 170 172 179 186 193 193 181 168 156 146 137 76 66 84 110 150
238 246 256 255 252 255 259 254 219 203 193 181 175 171 174 172 172 176 179 181 179 175 174 173 176 186 190 180 178 185 189 193 192 199 199 194 186 179 172 169 176 215 229 230
246 241 241 249 256 258 254 250 212 200 191 181 176 173 176 177 180 184 183 180 177 176 178 178 184 193 192 187 189 195 197 200 197 198 204 205 197 189 189 188 185 182 192 233
252 249 244 244 243 242 242 224 206 207 199 189 185 186 186 185 185 185 182 178 178 184 186 186 193 198 194 193 196 200 205 209 197 198 203 197 186 183 187 188 191 188 192 206
268 264 255 242 228 220 217 218 212 213 208 200 198 195 189 185 185 187 188 187 186 188 188 190 198 200 197 198 199 203 206 211 205 193 195 190 176 173 174 175 182 191 201 206
345 330 315 287 270 254 243 235 225 220 218 211 206 197 189 187 191 194 194 191 187 188 192 194 197 199 201 203 204 206 206 208 197 192 195 194 183 176 176 180 184 187 201 214
26 33 31 30 20 8 356 346 322 218 217 215 205 199 197 197 197 195 192 190 191 196 201 199 196 194 198 202 201 205 205 207 207 204 197 194 190 185 187 191 193 193 192 193
354 6 15 22 24 15 358 345 344 354 2 23 198 203 207 209 205 199 195 198 202 203 200 198 198 198 199 201 196 198 198 199 204 206 201 192 191 195 198 200 200 199 195 195
326 330 338 351 17 21 353 335 326 317 309 303 272 234 222 219 212 207 205 210 213 206 200 196 198 201 201 200 198 198 196 194 196 202 205 204 201 203 206 208 208 206 201 200
314 299 286 280 278 257 249 274 288 295 298 296 286 272 254 238 224 217 215 217 216 206 205 204 203 202 200 199 201 200 201 199 197 199 204 208 208 209 212 214 215 213 206 201
323 321 312 290 267 254 248 246 251 261 269 271 265 259 253 246 236 228 229 224 218 206 205 206 201 197 197 198 197 196 201 206 206 203 202 203 206 211 216 219 219 214 205 200
295 295 297 292 277 263 260 259 257 259 263 266 260 252 249 250 252 246 242 230 218 209 206 200 193 194 195 201 198 198 206 213 215 211 206 202 201 204 210 213 212 207 201 195
292 291 290 288 285 281 276 268 262 261 267 269 265 258 250 235 236 261 263 241 212 196 198 191 188 191 199 205 201 203 209 213 215 214 211 208 207 203 200 198 197 194 190 188
285 289 292 290 290 293 289 276 263 260 263 269 268 259 249 240 248 268 271 250 216 200 196 194 196 197 203 203 203 205 208 209 211 212 211 210 212 204 194 192 189 187 184 183
292 294 299 300 298 294 290 280 270 264 258 257 264 261 250 240 241 260 273 259 227 208 203 197 194 196 199 201 203 206 207 206 206 206 206 207 205 199 195 189 185 176 170 170
Height
1510 1505 1502 1501 1500 1505 1512 1515 1522 1514 1507 1499 1494 1492 1490 1488 1487 1488 1489 1490 1491 1492 1493 1495 1496 1497 1497 1497 1498 1500 1501 1501 1501 1501 1502 1502 1502 1502 1501 1500 1499 1498 1495 1493
1506 1500 1498 1499 1494 1495 1499 1500 1504 1502 1500 1491 1490 1489 1488 1486 1486 1487 1488 1489 1490 1490 1491 1493 1494 1496 1496 1496 1496 1497 1498 1499 1499 1499 1500 1501 1501 1502 1501 1501 1500 1499 1497 1495
1514 1502 1502 1504 1490 1488 1489 1488 1492 1497 1493 1487 1488 1488 1486 1486 1486 1485 1486 1487 1488 1489 1490 1492 1493 1495 1495 1495 1495 1496 1497 1497 1498 1499 1499 1500 1500 1501 1501 1501 1501 1499 1498 1497
1512 1509 1514 1499 1480 1478 1482 1482 1482 1483 1484 1484 1483 1483 1484 1484 1484 1484 1484 1484 1485 1486 1488 1490 1492 1493 1494 1494 1494 1495 1496 1497 1497 1498 1498 1499 1499 1499 1500 1501 1501 1500 1499 1498
1512 1513 1503 1487 1477 1476 1480 1483 1479 1480 1479 1479 1479 1482 1481 1480 1480 1481 1482 1483 1484 1485 1487 1488 1488 1489 1490 1492 1492 1493 1494 1495 1496 1497 1497 1498 1498 1499 1499 1500 1500 1500 1500 1499
1505 1509 1508 1487 1471 1470 1476 1484 1476 1476 1476 1476 1478 1484 1478 1475 1476 1479 1480 1482 1483 1484 1485 1485 1485 1486 1488 1489 1490 1492 1493 1495 1495 1496 1497 1497 1497 1498 1499 1500 1500 1500 1500 1500
1498 1500 1491 1472 1468 1470 1486 1482 1470 1470 1470 1471 1472 1472 1470 1471 1473 1476 1479 1481 1482 1483 1483 1483 1484 1485 1487 1488 1489 1491 1492 1493 1494 1495 1496 1496 1497 1498 1498 1499 1499 1500 1500 1501
1493 1496 1491 1466 1465 1469 1467 1461 1462 1464 1465 1466 1465 1465 1467 1468 1471 1474 1477 1479 1480 1481 1482 1482 1483 1484 1485 1487 1488 1489 1490 1492 1493 1494 1495 1496 1496 1496 1497 1498 1498 1499 1500 1500
1483 1481 1466 1462 1460 1456 1454 1455 1456 1458 1459 1460 1460 1461 1463 1465 1468 1471 1473 1476 1478 1479 1480 1481 1482 1483 1484 1485 1486 1487 1488 1490 1491 1492 1493 1494 1494 1495 1495 1496 1497 1498 1499 1499
1474 1467 1462 1459 1456 1453 1451 1449 1449 1452 1454 1455 1455 1457 1460 1462 1465 1468 1470 1472 1474 1476 1478 1479 1481 1482 1483 1483 1484 1485 1486 1487 1489 1490 1491 1491 1492 1493 1494 1495 1496 1497 1498 1499
1469 1462 1457 1453 1451 1449 1447 1446 1446 1447 1448 1449 1450 1452 1455 1458 1461 1464 1467 1469 1471 1472 1474 1476 1478 1479 1480 1481 1482 1482 1483 1485 1487 1488 1489 1490 1491 1493 1494 1495 1497 1498 1498 1499
1459 1454 1452 1448 1446 1445 1443 1441 1440 1440 1442 1443 1445 1446 1449 1453 1457 1460 1462 1464 1467 1469 1471 1472 1474 1476 1478 1479 1480 1481 1482 1483 1485 1487 1488 1490 1491 1493 1494 1496 1497 1498 1498 1499
1444 1443 1441 1439 1439 1438 1436 1435 1434 1434 1435 1437 1439 1441 1444 1447 1451 1455 1458 1460 1462 1465 1467 1469 1471 1473 1475 1477 1478 1480 1481 1482 1484 1486 1488 1489 1491 1492 1494 1496 1497 1498 1498 1499
1435 1435 1432 1431 1429 1429 1428 1427 1427 1427 1428 1431 1433 1436 1438 1441 1445 1449 1452 1454 1457 1460 1463 1465 1467 1469 1472 1474 1476 1478 1480 1482 1483 1485 1487 1489 1490 1492 1493 1495 1496 1497 1498 1499
1425 1425 1423 1422 1421 1421 1420 1420 1420 1420 1422 1425 1428 1431 1433 1435 1438 1442 1445 1449 1452 1455 1458 1460 1463 1466 1468 1471 1473 1476 1478 1480 1482 1483 1485 1487 1488 1490 1491 1493 1494 1496 1496 1497
1418 1417 1416 1415 1415 1414 1414 1413 1414 1415 1417 1419 1422 1425 1427 1429 1432 1435 1439 1442 1445 1448 1451 1455 1458 1461 1464 1467 1470 1472 1474 1476 1479 1480 1482 1483 1485 1486 1487 1489 1491 1493 1493 1494
1412 1410 1408 1408 1408 1408 1408 1408 1408 1409 1411 1413 1416 1418 1421 1423 1426 1429 1432 1435 1438 1441 1445 1449 1452 1456 1459 1462 1465 1467 1470 1472 1474 1476 1478 1480 1481 1482 1484 1485 1487 1488 1489 1491
1410 1407 1405 1404 1404 1404 1403 1403 1402 1403 1405 1406 1409 1411 1413 1415 1418 1420 1424 1428 1432 1435 1439 1442 1446 1450 1453 1456 1459 1462 1465 1467 1469 1471 1473 1475 1477 1479 1480 1482 1483 1484 1485 1486
1414 1409 1406 1403 1404 1404 1403 1401 1399 1399 1399 1400 1402 1403 1405 1407 1409 1412 1416 1420 1423 1427 1430 1435 1439 1443 1446 1449 1453 1456 1458 1461 1464 1466 1468 1470 1472 1474 1476 1477 1478 1479 1480 1481
1420 1415 1409 1404 1402 1401 1403 1403 1401 1399 1398 1398 1398 1398 1400 1401 1403 1405 1408 1410 1412 1415 1420 1425 1430 1434 1438 1442 1446 1448 1451 1454 1457 1459 1461 1463 1466 1468 1469 1471 1472 1473 1474 1475
1419 1416 1411 1406 1402 1401 1401 1401 1400 1399 1397 1396 1395 1395 1395 1396 1397 1398 1400 1401 1403 1408 1412 1416 1420 1424 1429 1433 1437 1441 1444 1447 1450 1452 1454 1456 1458 1460 1463 1464 1466 1467 1468 1469
1417 1414 1410 1406 1403 1399 1396 1395 1395 1395 1392 1390 1390 1389 1389 1389 1389 1389 1390 1392 1395 1398 1402 1406 1410 1414 1419 1424 1428 1432 1435 1439 1442 1444 1447 1449 1451 1453 1455 1457 1459 1461 1461 1462
1413 1409 1406 1403 1400 1397 1394 1391 1388 1387 1386 1384 1383 1382 1381 1380 1379 1379 1379 1380 1384 1387 1391 1395 1400 1405 1410 1414 1418 1423 1427 1430 1433 1436 1438 1441 1443 1445 1447 1450 1451 1453 1454 1455
1407 1403 1399 1396 1394 1391 1389 1386 1383 1380 1377 1375 1374 1372 1371 1369 1368 1368 1367 1368 1370 1373 1378 1383 1390 1395 1401 1405 1409 1413 1418 1421 1424 1427 1430 1433 1435 1437 1440 1442 1444 1445 1447 1448
1399 1395 1391 1387 1384 1381 1379 1375 1373 1370 1367 1365 1363 1361 1360 1359 1358 1357 1356 1356 1357 1360 1365 1370 1377 1384 1390 1395 1399 1404 1408 1411 1414 1418 1421 1424 1427 1430 1432 1434 1436 1438 1439 1441
1389 1385 1382 1378 1375 1371 1367 1364 1361 1359 1356 1354 1352 1351 1350 1349 1348 1347 1347 1346 1347 1349 1353 1359 1366 1372 1379 1385 1389 1394 1398 1401 1405 1409 1412 1416 1419 1422 1425 1427 1429 1431 1432 1434
1379 1375 1372 1368 1364 1359 1356 1353 1351 1349 1347 1345 1343 1342 1340 1339 1339 1338 1337 1336 1337 1339 1344 1349 1355 1362 1368 1375 1380 1384 1388 1392 1396 1400 1404 1408 1412 1414 1417 1419 1422 1424 1426 1429